Time,TemperatureF,DewpointF,PressureIn,WindDirection,WindDirectionDegrees,WindSpeedMPH,WindSpeedGustMPH,Humidity,HourlyPrecipIn,Conditions,Clouds,dailyrainin,SoftwareType,DateUTC
2013-08-31 00:01:00,69.1,67.9,29.77,East,98,0.0,0.0,96,0.00,,,0.00,Wunderground v.1.15,2013-08-31 04:01:00,
2013-08-31 00:02:00,69.1,67.9,29.77,East,98,0.0,0.0,96,0.00,,,0.00,Wunderground v.1.15,2013-08-31 04:02:00,
2013-08-31 00:04:00,69.1,67.9,29.77,East,98,0.0,0.0,96,0.00,,,0.00,Wunderground v.1.15,2013-08-31 04:04:00,
2013-08-31 00:11:00,69.1,67.9,29.77,East,98,0.0,0.0,96,0.00,,,0.00,Wunderground v.1.15,2013-08-31 04:11:00,
2013-08-31 00:13:00,69.1,67.9,29.77,East,98,0.0,0.0,96,0.00,,,0.00,Wunderground v.1.15,2013-08-31 04:13:00,
2013-08-31 00:18:00,69.1,67.9,29.77,East,98,0.0,0.0,96,0.00,,,0.00,Wunderground v.1.15,2013-08-31 04:18:00,
2013-08-31 00:24:00,69.1,67.9,29.77,East,98,0.0,0.0,96,0.00,,,0.00,Wunderground v.1.15,2013-08-31 04:24:00,
2013-08-31 00:31:00,68.9,67.7,29.77,East,98,0.0,0.0,96,0.00,,,0.00,Wunderground v.1.15,2013-08-31 04:31:00,
2013-08-31 00:36:00,68.8,67.9,29.77,East,98,0.0,0.0,97,0.00,,,0.00,Wunderground v.1.15,2013-08-31 04:36:00,
2013-08-31 00:42:00,68.6,67.7,29.77,East,98,0.0,0.0,97,0.00,,,0.00,Wunderground v.1.15,2013-08-31 04:42:00,
2013-08-31 00:47:00,68.6,67.7,29.77,East,98,0.0,0.0,97,0.00,,,0.00,Wunderground v.1.15,2013-08-31 04:47:00,
2013-08-31 00:53:00,68.4,67.5,29.77,East,98,0.0,0.0,97,0.00,,,0.00,Wunderground v.1.15,2013-08-31 04:53:00,
2013-08-31 00:54:00,68.4,67.5,29.77,East,98,0.0,0.0,97,0.00,,,0.00,Wunderground v.1.15,2013-08-31 04:54:00,
2013-08-31 01:00:00,68.3,67.4,29.76,East,98,0.0,0.0,97,0.00,,,0.00,Wunderground v.1.15,2013-08-31 05:00:00,
2013-08-31 01:06:00,68.3,67.4,29.76,East,98,0.0,0.0,97,0.00,,,0.00,Wunderground v.1.15,2013-08-31 05:06:00,
2013-08-31 01:11:00,68.3,67.4,29.75,East,98,0.0,0.0,97,0.00,,,0.00,Wunderground v.1.15,2013-08-31 05:11:00,
2013-08-31 01:16:00,68.3,67.7,29.75,East,98,0.0,0.0,98,0.00,,,0.00,Wunderground v.1.15,2013-08-31 05:16:00,
2013-08-31 01:22:00,68.3,67.7,29.75,East,98,0.0,0.0,98,0.00,,,0.00,Wunderground v.1.15,2013-08-31 05:22:00,
2013-08-31 01:28:00,68.4,67.8,29.75,East,98,0.0,0.0,98,0.00,,,0.00,Wunderground v.1.15,2013-08-31 05:28:00,
2013-08-31 01:33:00,68.4,67.5,29.75,East,98,0.0,0.0,97,0.00,,,0.00,Wunderground v.1.15,2013-08-31 05:33:00,
2013-08-31 01:38:00,68.4,67.5,29.75,East,98,0.0,0.0,97,0.00,,,0.00,Wunderground v.1.15,2013-08-31 05:38:00,
2013-08-31 01:46:00,68.4,67.5,29.75,East,98,0.0,0.0,97,0.00,,,0.00,Wunderground v.1.15,2013-08-31 05:46:00,
2013-08-31 01:51:00,68.3,67.4,29.75,East,98,0.0,0.0,97,0.00,,,0.00,Wunderground v.1.15,2013-08-31 05:51:00,
2013-08-31 01:56:00,68.3,67.7,29.75,East,98,0.0,0.0,98,0.00,,,0.00,Wunderground v.1.15,2013-08-31 05:56:00,
2013-08-31 02:01:00,68.3,67.4,29.75,East,98,0.0,0.0,97,0.00,,,0.00,Wunderground v.1.15,2013-08-31 06:01:00,
2013-08-31 02:06:00,68.3,67.4,29.75,East,98,0.0,0.0,97,0.00,,,0.00,Wunderground v.1.15,2013-08-31 06:06:00,
2013-08-31 02:12:00,68.4,67.5,29.75,East,98,0.0,0.0,97,0.00,,,0.00,Wunderground v.1.15,2013-08-31 06:12:00,
2013-08-31 02:17:00,68.4,67.5,29.75,East,98,0.0,0.0,97,0.00,,,0.00,Wunderground v.1.15,2013-08-31 06:17:00,
2013-08-31 02:22:00,68.4,67.5,29.75,East,98,0.0,0.0,97,0.00,,,0.00,Wunderground v.1.15,2013-08-31 06:22:00,
2013-08-31 02:27:00,68.3,67.4,29.75,East,98,0.0,0.0,97,0.00,,,0.00,Wunderground v.1.15,2013-08-31 06:27:00,
2013-08-31 02:32:00,68.3,67.4,29.75,East,98,0.0,0.0,97,0.00,,,0.00,Wunderground v.1.15,2013-08-31 06:32:00,
2013-08-31 02:37:00,68.3,67.4,29.75,East,98,0.0,0.0,97,0.00,,,0.00,Wunderground v.1.15,2013-08-31 06:37:00,
2013-08-31 02:42:00,68.3,67.4,29.75,East,98,0.0,0.0,97,0.00,,,0.00,Wunderground v.1.15,2013-08-31 06:42:00,
2013-08-31 02:48:00,68.1,67.2,29.75,East,98,0.0,0.0,97,0.00,,,0.00,Wunderground v.1.15,2013-08-31 06:48:00,
2013-08-31 02:52:00,68.1,67.2,29.75,East,98,0.0,0.0,97,0.00,,,0.00,Wunderground v.1.15,2013-08-31 06:52:00,
2013-08-31 02:58:00,68.1,67.2,29.76,East,98,0.0,0.0,97,0.00,,,0.00,Wunderground v.1.15,2013-08-31 06:58:00,
2013-08-31 03:02:00,67.9,67.3,29.76,East,98,0.0,0.0,98,0.00,,,0.00,Wunderground v.1.15,2013-08-31 07:02:00,
2013-08-31 03:07:00,67.8,67.2,29.76,East,98,0.0,0.0,98,0.00,,,0.00,Wunderground v.1.15,2013-08-31 07:07:00,
2013-08-31 03:12:00,67.8,67.2,29.76,East,98,0.0,0.0,98,0.00,,,0.00,Wunderground v.1.15,2013-08-31 07:12:00,
2013-08-31 03:17:00,67.8,67.2,29.76,East,98,0.0,0.0,98,0.00,,,0.00,Wunderground v.1.15,2013-08-31 07:17:00,
2013-08-31 03:23:00,67.6,67.0,29.76,East,98,0.0,0.0,98,0.00,,,0.00,Wunderground v.1.15,2013-08-31 07:23:00,
2013-08-31 03:28:00,67.8,67.2,29.77,East,98,0.0,0.0,98,0.00,,,0.00,Wunderground v.1.15,2013-08-31 07:28:00,
2013-08-31 03:33:00,67.8,67.2,29.77,East,98,0.0,0.0,98,0.00,,,0.00,Wunderground v.1.15,2013-08-31 07:33:00,
2013-08-31 03:38:00,67.9,67.3,29.77,East,98,0.0,0.0,98,0.00,,,0.00,Wunderground v.1.15,2013-08-31 07:38:00,
2013-08-31 03:43:00,68.1,67.5,29.77,East,98,0.0,0.0,98,0.00,,,0.00,Wunderground v.1.15,2013-08-31 07:43:00,
2013-08-31 03:48:00,68.3,67.4,29.77,East,98,0.0,0.0,97,0.00,,,0.00,Wunderground v.1.15,2013-08-31 07:48:00,
2013-08-31 03:53:00,68.4,67.5,29.77,East,98,0.0,0.0,97,0.00,,,0.00,Wunderground v.1.15,2013-08-31 07:53:00,
2013-08-31 03:58:00,68.4,67.5,29.78,East,98,0.0,1.0,97,0.00,,,0.00,Wunderground v.1.15,2013-08-31 07:58:00,
2013-08-31 04:03:00,68.3,67.7,29.78,East,98,0.0,1.0,98,0.00,,,0.00,Wunderground v.1.15,2013-08-31 08:03:00,
2013-08-31 04:08:00,68.3,67.7,29.78,East,98,0.0,0.0,98,0.00,,,0.00,Wunderground v.1.15,2013-08-31 08:08:00,
2013-08-31 04:13:00,68.3,67.7,29.77,East,98,0.0,0.0,98,0.00,,,0.00,Wunderground v.1.15,2013-08-31 08:13:00,
2013-08-31 04:18:00,68.1,67.8,29.77,East,98,0.0,0.0,99,0.00,,,0.00,Wunderground v.1.15,2013-08-31 08:18:00,
2013-08-31 04:23:00,68.1,67.8,29.77,East,98,0.0,0.0,99,0.00,,,0.00,Wunderground v.1.15,2013-08-31 08:23:00,
2013-08-31 04:28:00,67.9,67.6,29.77,East,98,0.0,0.0,99,0.00,,,0.00,Wunderground v.1.15,2013-08-31 08:28:00,
2013-08-31 04:33:00,67.8,67.5,29.77,East,98,0.0,0.0,99,0.00,,,0.00,Wunderground v.1.15,2013-08-31 08:33:00,
2013-08-31 04:38:00,67.9,67.9,29.77,East,98,0.0,0.0,100,0.00,,,0.00,Wunderground v.1.15,2013-08-31 08:38:00,
2013-08-31 04:43:00,67.9,67.9,29.77,East,98,0.0,0.0,100,0.00,,,0.00,Wunderground v.1.15,2013-08-31 08:43:00,
2013-08-31 04:48:00,67.8,67.8,29.77,East,98,0.0,0.0,100,0.00,,,0.00,Wunderground v.1.15,2013-08-31 08:48:00,
2013-08-31 04:53:00,67.8,67.8,29.77,East,98,0.0,0.0,100,0.00,,,0.00,Wunderground v.1.15,2013-08-31 08:53:00,
2013-08-31 04:58:00,67.8,67.8,29.78,East,98,0.0,0.0,100,0.00,,,0.00,Wunderground v.1.15,2013-08-31 08:58:00,
2013-08-31 05:03:00,67.8,67.8,29.78,East,98,0.0,0.0,100,0.00,,,0.00,Wunderground v.1.15,2013-08-31 09:03:00,
2013-08-31 05:08:00,67.8,67.8,29.78,East,98,0.0,0.0,100,0.00,,,0.00,Wunderground v.1.15,2013-08-31 09:08:00,
2013-08-31 05:13:00,67.8,67.8,29.78,East,98,0.0,0.0,100,0.00,,,0.00,Wunderground v.1.15,2013-08-31 09:13:00,
2013-08-31 05:18:00,67.8,67.8,29.78,East,98,0.0,0.0,100,0.00,,,0.00,Wunderground v.1.15,2013-08-31 09:18:00,
2013-08-31 05:23:00,67.8,67.8,29.78,East,98,0.0,0.0,100,0.00,,,0.00,Wunderground v.1.15,2013-08-31 09:23:00,
2013-08-31 05:28:00,67.6,67.6,29.77,East,98,0.0,0.0,100,0.00,,,0.00,Wunderground v.1.15,2013-08-31 09:28:00,
2013-08-31 05:33:00,67.6,67.6,29.77,East,98,1.0,1.0,100,0.00,,,0.00,Wunderground v.1.15,2013-08-31 09:33:00,
2013-08-31 05:38:00,67.6,67.6,29.77,East,98,0.0,0.0,100,0.00,,,0.00,Wunderground v.1.15,2013-08-31 09:38:00,
2013-08-31 05:43:00,67.6,67.6,29.76,East,98,0.0,0.0,100,0.00,,,0.00,Wunderground v.1.15,2013-08-31 09:43:00,
2013-08-31 05:48:00,67.6,67.6,29.76,East,98,0.0,0.0,100,0.00,,,0.00,Wunderground v.1.15,2013-08-31 09:48:00,
2013-08-31 05:53:00,67.6,67.6,29.76,East,98,0.0,0.0,100,0.00,,,0.00,Wunderground v.1.15,2013-08-31 09:53:00,
2013-08-31 06:00:00,67.4,67.4,29.77,East,98,0.0,0.0,100,0.00,,,0.00,Wunderground v.1.15,2013-08-31 10:00:00,
2013-08-31 06:05:00,67.4,67.4,29.77,East,98,0.0,0.0,100,0.00,,,0.00,Wunderground v.1.15,2013-08-31 10:05:00,
2013-08-31 06:11:00,67.4,67.4,29.78,East,98,0.0,0.0,100,0.00,,,0.00,Wunderground v.1.15,2013-08-31 10:11:00,
2013-08-31 06:17:00,67.4,67.4,29.78,East,98,0.0,0.0,100,0.00,,,0.00,Wunderground v.1.15,2013-08-31 10:17:00,
2013-08-31 06:22:00,67.4,67.4,29.78,East,98,0.0,0.0,100,0.00,,,0.00,Wunderground v.1.15,2013-08-31 10:22:00,
2013-08-31 06:27:00,67.4,67.4,29.78,East,98,0.0,0.0,100,0.00,,,0.00,Wunderground v.1.15,2013-08-31 10:27:00,
2013-08-31 06:32:00,67.4,67.4,29.78,East,98,0.0,0.0,100,0.00,,,0.00,Wunderground v.1.15,2013-08-31 10:32:00,
2013-08-31 06:37:00,67.4,67.4,29.78,East,98,0.0,0.0,100,0.00,,,0.00,Wunderground v.1.15,2013-08-31 10:37:00,
2013-08-31 06:42:00,67.4,67.4,29.77,East,98,0.0,0.0,100,0.00,,,0.00,Wunderground v.1.15,2013-08-31 10:42:00,
2013-08-31 06:47:00,67.4,67.4,29.77,East,98,0.0,0.0,100,0.00,,,0.00,Wunderground v.1.15,2013-08-31 10:47:00,
2013-08-31 06:52:00,67.4,67.4,29.77,East,98,0.0,0.0,100,0.00,,,0.00,Wunderground v.1.15,2013-08-31 10:52:00,
2013-08-31 06:57:00,67.4,67.4,29.78,East,98,0.0,0.0,100,0.00,,,0.00,Wunderground v.1.15,2013-08-31 10:57:00,
2013-08-31 07:02:00,67.4,67.4,29.78,East,98,0.0,0.0,100,0.00,,,0.00,Wunderground v.1.15,2013-08-31 11:02:00,
2013-08-31 07:07:00,67.6,67.6,29.78,East,98,0.0,0.0,100,0.00,,,0.00,Wunderground v.1.15,2013-08-31 11:07:00,
2013-08-31 07:12:00,67.6,67.6,29.78,East,98,0.0,0.0,100,0.00,,,0.00,Wunderground v.1.15,2013-08-31 11:12:00,
2013-08-31 07:18:00,67.6,67.6,29.78,East,98,0.0,0.0,100,0.00,,,0.00,Wunderground v.1.15,2013-08-31 11:18:00,
2013-08-31 07:23:00,67.6,67.6,29.78,East,98,0.0,0.0,100,0.00,,,0.00,Wunderground v.1.15,2013-08-31 11:23:00,
2013-08-31 07:28:00,67.6,67.6,29.78,East,98,0.0,0.0,100,0.00,,,0.00,Wunderground v.1.15,2013-08-31 11:28:00,
2013-08-31 07:33:00,67.8,67.8,29.78,East,98,0.0,0.0,100,0.00,,,0.00,Wunderground v.1.15,2013-08-31 11:33:00,
2013-08-31 07:38:00,67.8,67.8,29.78,East,98,0.0,0.0,100,0.00,,,0.00,Wunderground v.1.15,2013-08-31 11:38:00,
2013-08-31 07:43:00,67.8,67.8,29.79,East,98,0.0,0.0,100,0.00,,,0.00,Wunderground v.1.15,2013-08-31 11:43:00,
2013-08-31 07:48:00,67.9,67.9,29.79,East,98,0.0,0.0,100,0.00,,,0.00,Wunderground v.1.15,2013-08-31 11:48:00,
2013-08-31 07:53:00,67.9,67.9,29.79,East,98,0.0,0.0,100,0.00,,,0.00,Wunderground v.1.15,2013-08-31 11:53:00,
2013-08-31 07:58:00,68.1,68.1,29.79,East,98,0.0,0.0,100,0.00,,,0.00,Wunderground v.1.15,2013-08-31 11:58:00,
2013-08-31 08:03:00,68.1,68.1,29.79,East,98,0.0,0.0,100,0.00,,,0.00,Wunderground v.1.15,2013-08-31 12:03:00,
2013-08-31 08:08:00,68.1,68.1,29.79,East,98,0.0,0.0,100,0.00,,,0.00,Wunderground v.1.15,2013-08-31 12:08:00,
2013-08-31 08:13:00,68.3,68.3,29.79,East,98,0.0,0.0,100,0.00,,,0.00,Wunderground v.1.15,2013-08-31 12:13:00,
2013-08-31 08:19:00,68.3,68.3,29.79,East,98,0.0,0.0,100,0.00,,,0.00,Wunderground v.1.15,2013-08-31 12:19:00,
2013-08-31 08:24:00,68.3,68.3,29.79,East,98,0.0,0.0,100,0.00,,,0.00,Wunderground v.1.15,2013-08-31 12:24:00,
2013-08-31 08:29:00,68.4,68.4,29.78,East,98,0.0,0.0,100,0.00,,,0.00,Wunderground v.1.15,2013-08-31 12:29:00,
2013-08-31 08:34:00,68.4,68.4,29.78,East,98,0.0,0.0,100,0.00,,,0.00,Wunderground v.1.15,2013-08-31 12:34:00,
2013-08-31 08:39:00,68.6,68.6,29.78,East,98,0.0,0.0,100,0.00,,,0.00,Wunderground v.1.15,2013-08-31 12:39:00,
2013-08-31 08:44:00,68.6,68.6,29.79,East,98,0.0,0.0,100,0.00,,,0.00,Wunderground v.1.15,2013-08-31 12:44:00,
2013-08-31 08:49:00,68.9,68.9,29.79,East,98,0.0,0.0,100,0.00,,,0.00,Wunderground v.1.15,2013-08-31 12:49:00,
2013-08-31 08:54:00,68.9,68.9,29.79,East,98,0.0,0.0,100,0.00,,,0.00,Wunderground v.1.15,2013-08-31 12:54:00,
2013-08-31 09:01:00,68.9,68.9,29.79,East,98,0.0,0.0,100,0.00,,,0.00,Wunderground v.1.15,2013-08-31 13:01:00,
2013-08-31 09:07:00,69.1,69.1,29.79,East,98,0.0,0.0,100,0.00,,,0.00,Wunderground v.1.15,2013-08-31 13:07:00,
2013-08-31 09:12:00,68.9,68.9,29.79,East,98,0.0,0.0,100,0.00,,,0.00,Wunderground v.1.15,2013-08-31 13:12:00,
2013-08-31 09:17:00,69.1,69.1,29.79,East,98,0.0,0.0,100,0.00,,,0.00,Wunderground v.1.15,2013-08-31 13:17:00,
2013-08-31 09:22:00,69.1,69.1,29.79,East,98,0.0,0.0,100,0.00,,,0.00,Wunderground v.1.15,2013-08-31 13:22:00,
2013-08-31 09:27:00,69.6,69.6,29.80,East,98,0.0,0.0,100,0.00,,,0.00,Wunderground v.1.15,2013-08-31 13:27:00,
2013-08-31 09:32:00,69.6,69.6,29.80,East,98,0.0,0.0,100,0.00,,,0.00,Wunderground v.1.15,2013-08-31 13:32:00,
2013-08-31 09:37:00,69.8,69.8,29.80,East,98,0.0,0.0,100,0.00,,,0.00,Wunderground v.1.15,2013-08-31 13:37:00,
2013-08-31 09:42:00,69.9,69.9,29.80,East,98,0.0,0.0,100,0.00,,,0.00,Wunderground v.1.15,2013-08-31 13:42:00,
2013-08-31 09:47:00,69.6,69.6,29.80,East,98,0.0,0.0,100,0.00,,,0.00,Wunderground v.1.15,2013-08-31 13:47:00,
2013-08-31 09:52:00,69.3,69.3,29.80,East,98,0.0,0.0,100,0.00,,,0.00,Wunderground v.1.15,2013-08-31 13:52:00,
2013-08-31 09:57:00,69.3,69.3,29.80,East,98,0.0,0.0,100,0.00,,,0.00,Wunderground v.1.15,2013-08-31 13:57:00,
2013-08-31 10:02:00,69.4,69.4,29.80,East,98,0.0,0.0,100,0.00,,,0.00,Wunderground v.1.15,2013-08-31 14:02:00,
2013-08-31 10:07:00,69.6,69.6,29.80,East,98,0.0,0.0,100,0.00,,,0.00,Wunderground v.1.15,2013-08-31 14:07:00,
2013-08-31 10:12:00,70.1,70.1,29.80,East,98,0.0,0.0,100,0.00,,,0.00,Wunderground v.1.15,2013-08-31 14:12:00,
2013-08-31 10:18:00,70.1,70.1,29.80,East,98,0.0,0.0,100,0.00,,,0.00,Wunderground v.1.15,2013-08-31 14:18:00,
2013-08-31 10:23:00,70.3,70.3,29.80,East,98,0.0,0.0,100,0.00,,,0.00,Wunderground v.1.15,2013-08-31 14:23:00,
2013-08-31 10:28:00,70.1,70.1,29.80,East,98,0.0,0.0,100,0.00,,,0.00,Wunderground v.1.15,2013-08-31 14:28:00,
2013-08-31 10:33:00,70.1,70.1,29.80,East,98,0.0,0.0,100,0.00,,,0.00,Wunderground v.1.15,2013-08-31 14:33:00,
2013-08-31 10:38:00,70.4,70.4,29.80,East,98,0.0,0.0,100,0.00,,,0.00,Wunderground v.1.15,2013-08-31 14:38:00,
2013-08-31 10:43:00,70.4,70.4,29.79,East,98,0.0,0.0,100,0.00,,,0.00,Wunderground v.1.15,2013-08-31 14:43:00,
2013-08-31 10:48:00,70.3,70.3,29.79,East,98,0.0,0.0,100,0.00,,,0.00,Wunderground v.1.15,2013-08-31 14:48:00,
2013-08-31 10:53:00,70.1,70.1,29.79,East,98,0.0,0.0,100,0.00,,,0.00,Wunderground v.1.15,2013-08-31 14:53:00,
2013-08-31 10:58:00,70.3,70.3,29.80,East,98,0.0,0.0,100,0.00,,,0.00,Wunderground v.1.15,2013-08-31 14:58:00,
2013-08-31 11:03:00,70.4,70.4,29.80,East,98,0.0,0.0,100,0.00,,,0.00,Wunderground v.1.15,2013-08-31 15:03:00,
2013-08-31 11:08:00,70.3,70.3,29.80,East,98,0.0,0.0,100,0.00,,,0.00,Wunderground v.1.15,2013-08-31 15:08:00,
2013-08-31 11:13:00,70.3,70.3,29.80,East,98,0.0,0.0,100,0.00,,,0.00,Wunderground v.1.15,2013-08-31 15:13:00,
2013-08-31 11:18:00,70.3,70.3,29.80,East,98,0.0,0.0,100,0.00,,,0.00,Wunderground v.1.15,2013-08-31 15:18:00,
2013-08-31 11:23:00,70.6,70.3,29.80,East,98,0.0,0.0,99,0.00,,,0.00,Wunderground v.1.15,2013-08-31 15:23:00,
2013-08-31 11:28:00,70.8,70.5,29.80,East,98,0.0,0.0,99,0.00,,,0.00,Wunderground v.1.15,2013-08-31 15:28:00,
2013-08-31 11:33:00,70.8,70.5,29.80,East,98,0.0,0.0,99,0.00,,,0.00,Wunderground v.1.15,2013-08-31 15:33:00,
2013-08-31 11:38:00,70.8,70.2,29.80,East,98,0.0,0.0,98,0.00,,,0.00,Wunderground v.1.15,2013-08-31 15:38:00,
2013-08-31 11:43:00,70.8,70.2,29.79,East,98,0.0,0.0,98,0.00,,,0.00,Wunderground v.1.15,2013-08-31 15:43:00,
2013-08-31 11:48:00,70.9,70.3,29.79,East,98,0.0,0.0,98,0.00,,,0.00,Wunderground v.1.15,2013-08-31 15:48:00,
2013-08-31 11:53:00,71.1,70.8,29.79,East,98,0.0,0.0,99,0.00,,,0.00,Wunderground v.1.15,2013-08-31 15:53:00,
2013-08-31 11:59:00,70.9,70.3,29.79,East,98,0.0,0.0,98,0.00,,,0.00,Wunderground v.1.15,2013-08-31 15:59:00,
2013-08-31 12:03:00,71.1,70.5,29.79,East,98,0.0,0.0,98,0.00,,,0.00,Wunderground v.1.15,2013-08-31 16:03:00,
2013-08-31 12:08:00,71.3,70.4,29.79,East,98,0.0,0.0,97,0.00,,,0.00,Wunderground v.1.15,2013-08-31 16:08:00,
2013-08-31 12:14:00,71.5,70.6,29.79,East,98,0.0,0.0,97,0.00,,,0.00,Wunderground v.1.15,2013-08-31 16:14:00,
2013-08-31 12:19:00,71.8,70.9,29.79,East,98,0.0,0.0,97,0.00,,,0.00,Wunderground v.1.15,2013-08-31 16:19:00,
2013-08-31 12:24:00,72.0,71.1,29.79,East,98,0.0,0.0,97,0.00,,,0.00,Wunderground v.1.15,2013-08-31 16:24:00,
2013-08-31 12:29:00,71.8,70.6,29.78,East,98,0.0,0.0,96,0.00,,,0.00,Wunderground v.1.15,2013-08-31 16:29:00,
2013-08-31 12:34:00,72.0,70.5,29.78,East,98,0.0,0.0,95,0.00,,,0.00,Wunderground v.1.15,2013-08-31 16:34:00,
2013-08-31 12:39:00,72.5,71.0,29.78,East,98,0.0,0.0,95,0.00,,,0.00,Wunderground v.1.15,2013-08-31 16:39:00,
2013-08-31 12:44:00,72.7,71.2,29.78,East,98,0.0,0.0,95,0.00,,,0.00,Wunderground v.1.15,2013-08-31 16:44:00,
2013-08-31 12:49:00,73.0,71.5,29.78,East,98,0.0,0.0,95,0.00,,,0.00,Wunderground v.1.15,2013-08-31 16:49:00,
2013-08-31 12:54:00,73.3,71.8,29.77,East,98,0.0,0.0,95,0.00,,,0.00,Wunderground v.1.15,2013-08-31 16:54:00,
2013-08-31 13:01:00,73.2,71.7,29.77,East,97,0.0,1.0,95,0.00,,,0.00,Wunderground v.1.15,2013-08-31 17:01:00,
2013-08-31 13:06:00,73.9,71.7,29.77,East,98,0.0,1.0,93,0.00,,,0.00,Wunderground v.1.15,2013-08-31 17:06:00,
2013-08-31 13:12:00,74.0,71.8,29.77,East,100,0.0,1.0,93,0.00,,,0.00,Wunderground v.1.15,2013-08-31 17:12:00,
2013-08-31 13:17:00,74.2,72.0,29.77,East,101,0.0,0.0,93,0.00,,,0.00,Wunderground v.1.15,2013-08-31 17:17:00,
2013-08-31 13:22:00,74.4,71.9,29.77,East,101,0.0,0.0,92,0.00,,,0.00,Wunderground v.1.15,2013-08-31 17:22:00,
2013-08-31 13:27:00,74.6,71.8,29.77,East,101,0.0,0.0,91,0.00,,,0.00,Wunderground v.1.15,2013-08-31 17:27:00,
2013-08-31 13:32:00,75.1,72.6,29.77,East,101,0.0,0.0,92,0.00,,,0.00,Wunderground v.1.15,2013-08-31 17:32:00,
2013-08-31 13:37:00,75.1,72.3,29.77,North,358,0.0,0.0,91,0.00,,,0.00,Wunderground v.1.15,2013-08-31 17:37:00,
2013-08-31 13:42:00,75.1,72.3,29.77,North,358,0.0,1.0,91,0.00,,,0.00,Wunderground v.1.15,2013-08-31 17:42:00,
2013-08-31 13:47:00,75.4,72.9,29.77,North,358,0.0,0.0,92,0.00,,,0.00,Wunderground v.1.15,2013-08-31 17:47:00,
2013-08-31 13:52:00,75.6,72.8,29.77,North,358,0.0,0.0,91,0.00,,,0.00,Wunderground v.1.15,2013-08-31 17:52:00,
2013-08-31 13:57:00,75.8,73.0,29.77,North,358,0.0,0.0,91,0.00,,,0.00,Wunderground v.1.15,2013-08-31 17:57:00,
2013-08-31 14:03:00,75.8,73.0,29.77,North,355,0.0,0.0,91,0.00,,,0.00,Wunderground v.1.15,2013-08-31 18:03:00,
2013-08-31 14:08:00,76.1,73.0,29.77,North,355,0.0,0.0,90,0.00,,,0.00,Wunderground v.1.15,2013-08-31 18:08:00,
2013-08-31 14:13:00,76.3,73.1,29.76,North,355,0.0,0.0,90,0.00,,,0.00,Wunderground v.1.15,2013-08-31 18:13:00,
2013-08-31 14:18:00,76.3,72.8,29.76,West,276,0.0,0.0,89,0.00,,,0.00,Wunderground v.1.15,2013-08-31 18:18:00,
2013-08-31 14:23:00,76.1,73.0,29.76,West,276,0.0,0.0,90,0.00,,,0.00,Wunderground v.1.15,2013-08-31 18:23:00,
2013-08-31 14:28:00,76.1,73.0,29.76,West,276,0.0,0.0,90,0.00,,,0.00,Wunderground v.1.15,2013-08-31 18:28:00,
2013-08-31 14:33:00,76.3,72.8,29.76,West,276,0.0,0.0,89,0.00,,,0.00,Wunderground v.1.15,2013-08-31 18:33:00,
2013-08-31 14:38:00,76.7,73.9,29.76,West,276,0.0,0.0,91,0.00,,,0.00,Wunderground v.1.15,2013-08-31 18:38:00,
2013-08-31 14:43:00,76.7,73.9,29.75,West,280,0.0,0.0,91,0.00,,,0.00,Wunderground v.1.15,2013-08-31 18:43:00,
2013-08-31 14:48:00,76.7,73.9,29.75,NNW,345,0.0,0.0,91,0.00,,,0.00,Wunderground v.1.15,2013-08-31 18:48:00,
2013-08-31 14:53:00,77.4,73.9,29.75,ENE,64,0.0,1.0,89,0.00,,,0.00,Wunderground v.1.15,2013-08-31 18:53:00,
2013-08-31 14:58:00,77.9,73.4,29.75,ENE,63,0.0,0.0,86,0.00,,,0.00,Wunderground v.1.15,2013-08-31 18:58:00,
2013-08-31 15:03:00,78.1,73.9,29.75,ENE,63,1.0,1.0,87,0.00,,,0.00,Wunderground v.1.15,2013-08-31 19:03:00,
2013-08-31 15:08:00,77.7,73.5,29.75,NE,54,0.0,1.0,87,0.00,,,0.00,Wunderground v.1.15,2013-08-31 19:08:00,
2013-08-31 15:13:00,77.4,73.6,29.75,NE,52,0.0,1.0,88,0.00,,,0.00,Wunderground v.1.15,2013-08-31 19:13:00,
2013-08-31 15:18:00,77.2,74.0,29.75,NE,52,0.0,0.0,90,0.00,,,0.00,Wunderground v.1.15,2013-08-31 19:18:00,
2013-08-31 15:23:00,77.2,74.4,29.75,ENE,66,0.0,0.0,91,0.00,,,0.00,Wunderground v.1.15,2013-08-31 19:23:00,
2013-08-31 15:28:00,77.2,74.4,29.75,ENE,66,0.0,0.0,91,0.00,,,0.00,Wunderground v.1.15,2013-08-31 19:28:00,
2013-08-31 15:33:00,77.4,74.2,29.75,ENE,66,0.0,0.0,90,0.00,,,0.00,Wunderground v.1.15,2013-08-31 19:33:00,
2013-08-31 15:38:00,77.4,74.2,29.75,ENE,66,0.0,0.0,90,0.00,,,0.00,Wunderground v.1.15,2013-08-31 19:38:00,
2013-08-31 15:43:00,77.4,74.6,29.75,ENE,66,0.0,0.0,91,0.00,,,0.00,Wunderground v.1.15,2013-08-31 19:43:00,
2013-08-31 15:48:00,77.4,74.6,29.75,ENE,66,0.0,0.0,91,0.00,,,0.00,Wunderground v.1.15,2013-08-31 19:48:00,
2013-08-31 15:53:00,77.6,74.8,29.75,ENE,64,0.0,0.0,91,0.00,,,0.00,Wunderground v.1.15,2013-08-31 19:53:00,
2013-08-31 15:58:00,77.7,74.9,29.74,ENE,64,0.0,0.0,91,0.00,,,0.00,Wunderground v.1.15,2013-08-31 19:58:00,
2013-08-31 16:03:00,77.7,73.9,29.74,ENE,64,0.0,0.0,88,0.00,,,0.00,Wunderground v.1.15,2013-08-31 20:03:00,
2013-08-31 16:08:00,77.9,74.1,29.74,West,276,0.0,1.0,88,0.00,,,0.00,Wunderground v.1.15,2013-08-31 20:08:00,
2013-08-31 16:13:00,78.1,74.3,29.74,West,276,0.0,0.0,88,0.00,,,0.00,Wunderground v.1.15,2013-08-31 20:13:00,
2013-08-31 16:18:00,78.3,74.5,29.74,West,270,0.0,0.0,88,0.00,,,0.00,Wunderground v.1.15,2013-08-31 20:18:00,
2013-08-31 16:23:00,78.5,75.0,29.74,West,270,0.0,0.0,89,0.00,,,0.00,Wunderground v.1.15,2013-08-31 20:23:00,
2013-08-31 16:28:00,78.5,74.6,29.74,West,270,0.0,0.0,88,0.00,,,0.00,Wunderground v.1.15,2013-08-31 20:28:00,
2013-08-31 16:34:00,78.3,74.5,29.74,ESE,119,0.0,0.0,88,0.00,,,0.00,Wunderground v.1.15,2013-08-31 20:34:00,
2013-08-31 16:39:00,78.1,74.6,29.74,ESE,121,0.0,0.0,89,0.00,,,0.00,Wunderground v.1.15,2013-08-31 20:39:00,
2013-08-31 16:44:00,78.1,74.6,29.74,ESE,114,0.0,0.0,89,0.00,,,0.00,Wunderground v.1.15,2013-08-31 20:44:00,
2013-08-31 16:49:00,77.9,74.4,29.74,North,351,0.0,0.0,89,0.00,,,0.00,Wunderground v.1.15,2013-08-31 20:49:00,
2013-08-31 16:54:00,77.6,74.1,29.74,North,350,0.0,0.0,89,0.00,,,0.00,Wunderground v.1.15,2013-08-31 20:54:00,
2013-08-31 16:59:00,77.2,74.0,29.74,North,350,0.0,0.0,90,0.00,,,0.00,Wunderground v.1.15,2013-08-31 20:59:00,
2013-08-31 17:04:00,77.0,73.8,29.74,North,350,0.0,0.0,90,0.00,,,0.00,Wunderground v.1.15,2013-08-31 21:04:00,
2013-08-31 17:10:00,76.8,74.3,29.73,North,350,0.0,0.0,92,0.00,,,0.00,Wunderground v.1.15,2013-08-31 21:10:00,
2013-08-31 17:17:00,76.7,74.5,29.73,North,350,0.0,0.0,93,0.00,,,0.00,Wunderground v.1.15,2013-08-31 21:17:00,
2013-08-31 17:22:00,76.3,74.4,29.73,North,350,0.0,0.0,94,0.00,,,0.00,Wunderground v.1.15,2013-08-31 21:22:00,
2013-08-31 17:27:00,76.3,74.8,29.73,North,350,0.0,0.0,95,0.00,,,0.00,Wunderground v.1.15,2013-08-31 21:27:00,
2013-08-31 17:32:00,76.3,74.8,29.73,North,350,0.0,0.0,95,0.00,,,0.00,Wunderground v.1.15,2013-08-31 21:32:00,
2013-08-31 17:37:00,76.5,75.0,29.73,North,350,0.0,0.0,95,0.00,,,0.00,Wunderground v.1.15,2013-08-31 21:37:00,
2013-08-31 17:42:00,76.5,75.3,29.73,North,350,0.0,0.0,96,0.00,,,0.00,Wunderground v.1.15,2013-08-31 21:42:00,
2013-08-31 17:47:00,76.7,75.5,29.73,North,350,0.0,0.0,96,0.00,,,0.00,Wunderground v.1.15,2013-08-31 21:47:00,
2013-08-31 17:52:00,76.8,75.6,29.73,North,350,0.0,0.0,96,0.00,,,0.00,Wunderground v.1.15,2013-08-31 21:52:00,
2013-08-31 17:57:00,76.7,75.2,29.73,NNE,22,0.0,1.0,95,0.00,,,0.00,Wunderground v.1.15,2013-08-31 21:57:00,
2013-08-31 18:02:00,76.3,73.8,29.73,SW,214,0.0,6.0,92,0.00,,,0.00,Wunderground v.1.15,2013-08-31 22:02:00,
2013-08-31 18:07:00,76.3,73.8,29.73,West,261,0.0,0.0,92,0.00,,,0.00,Wunderground v.1.15,2013-08-31 22:07:00,
2013-08-31 18:12:00,76.1,73.6,29.73,West,261,0.0,1.0,92,0.00,,,0.00,Wunderground v.1.15,2013-08-31 22:12:00,
2013-08-31 18:18:00,76.0,73.5,29.73,West,269,0.0,1.0,92,0.00,,,0.00,Wunderground v.1.15,2013-08-31 22:18:00,
2013-08-31 18:23:00,76.0,73.2,29.73,West,259,0.0,1.0,91,0.00,,,0.00,Wunderground v.1.15,2013-08-31 22:23:00,
2013-08-31 18:28:00,75.8,73.0,29.74,West,259,0.0,0.0,91,0.00,,,0.00,Wunderground v.1.15,2013-08-31 22:28:00,
2013-08-31 18:33:00,75.6,73.1,29.74,West,259,0.0,0.0,92,0.00,,,0.00,Wunderground v.1.15,2013-08-31 22:33:00,
2013-08-31 18:38:00,75.4,72.9,29.74,West,259,0.0,0.0,92,0.00,,,0.00,Wunderground v.1.15,2013-08-31 22:38:00,
2013-08-31 18:43:00,75.3,72.8,29.74,West,259,0.0,0.0,92,0.00,,,0.00,Wunderground v.1.15,2013-08-31 22:43:00,
2013-08-31 18:48:00,75.1,72.6,29.74,SW,214,0.0,1.0,92,0.00,,,0.00,Wunderground v.1.15,2013-08-31 22:48:00,
2013-08-31 18:53:00,74.9,72.4,29.74,SW,214,0.0,1.0,92,0.00,,,0.00,Wunderground v.1.15,2013-08-31 22:53:00,
2013-08-31 18:58:00,74.9,72.4,29.74,SSW,206,0.0,0.0,92,0.00,,,0.00,Wunderground v.1.15,2013-08-31 22:58:00,
2013-08-31 19:03:00,74.6,72.4,29.74,SSW,206,0.0,0.0,93,0.00,,,0.00,Wunderground v.1.15,2013-08-31 23:03:00,
2013-08-31 19:08:00,74.4,72.6,29.74,SSW,206,0.0,0.0,94,0.00,,,0.00,Wunderground v.1.15,2013-08-31 23:08:00,
2013-08-31 19:13:00,74.2,72.4,29.74,SSW,206,0.0,0.0,94,0.00,,,0.00,Wunderground v.1.15,2013-08-31 23:13:00,
2013-08-31 19:18:00,74.0,72.5,29.74,SSW,206,0.0,0.0,95,0.00,,,0.00,Wunderground v.1.15,2013-08-31 23:18:00,
2013-08-31 19:23:00,73.9,72.4,29.74,SSW,206,0.0,0.0,95,0.00,,,0.00,Wunderground v.1.15,2013-08-31 23:23:00,
2013-08-31 19:28:00,73.9,72.7,29.74,SSW,206,0.0,0.0,96,0.00,,,0.00,Wunderground v.1.15,2013-08-31 23:28:00,
2013-08-31 19:33:00,73.7,72.5,29.74,SSW,206,0.0,0.0,96,0.00,,,0.00,Wunderground v.1.15,2013-08-31 23:33:00,
2013-08-31 19:38:00,73.5,72.3,29.74,SSW,206,0.0,0.0,96,0.00,,,0.00,Wunderground v.1.15,2013-08-31 23:38:00,
2013-08-31 19:43:00,73.5,72.6,29.75,SSW,206,0.0,0.0,97,0.00,,,0.00,Wunderground v.1.15,2013-08-31 23:43:00,
2013-08-31 19:48:00,73.5,72.6,29.75,SSW,206,0.0,0.0,97,0.00,,,0.00,Wunderground v.1.15,2013-08-31 23:48:00,
2013-08-31 19:53:00,73.5,72.6,29.75,SSW,206,0.0,0.0,97,0.00,,,0.00,Wunderground v.1.15,2013-08-31 23:53:00,
2013-08-31 19:58:00,73.5,72.6,29.75,SSW,206,0.0,0.0,97,0.00,,,0.00,Wunderground v.1.15,2013-08-31 23:58:00,
2013-08-31 20:03:00,73.3,72.4,29.75,SSW,206,0.0,0.0,97,0.00,,,0.00,Wunderground v.1.15,2013-09-01 00:03:00,
2013-08-31 20:08:00,73.3,72.4,29.75,SSW,206,0.0,0.0,97,0.00,,,0.00,Wunderground v.1.15,2013-09-01 00:08:00,
2013-08-31 20:13:00,73.3,72.4,29.74,SSW,206,0.0,0.0,97,0.00,,,0.00,Wunderground v.1.15,2013-09-01 00:13:00,
2013-08-31 20:18:00,73.3,72.4,29.74,SSW,206,0.0,0.0,97,0.00,,,0.00,Wunderground v.1.15,2013-09-01 00:18:00,
2013-08-31 20:23:00,73.3,72.4,29.74,SSW,206,0.0,0.0,97,0.00,,,0.00,Wunderground v.1.15,2013-09-01 00:23:00,
2013-08-31 20:28:00,73.2,72.3,29.74,SSW,207,0.0,1.0,97,0.00,,,0.00,Wunderground v.1.15,2013-09-01 00:28:00,
2013-08-31 20:33:00,73.2,72.3,29.74,SSW,207,0.0,1.0,97,0.00,,,0.00,Wunderground v.1.15,2013-09-01 00:33:00,
2013-08-31 20:38:00,73.0,72.1,29.74,SSW,208,0.0,0.0,97,0.00,,,0.00,Wunderground v.1.15,2013-09-01 00:38:00,
2013-08-31 20:43:00,72.8,71.9,29.74,SSW,208,0.0,0.0,97,0.00,,,0.00,Wunderground v.1.15,2013-09-01 00:43:00,
2013-08-31 20:48:00,72.7,72.1,29.74,SSW,208,0.0,0.0,98,0.00,,,0.00,Wunderground v.1.15,2013-09-01 00:48:00,
2013-08-31 20:53:00,72.7,72.1,29.74,SSW,208,0.0,0.0,98,0.00,,,0.00,Wunderground v.1.15,2013-09-01 00:53:00,
2013-08-31 20:59:00,72.7,72.1,29.75,SSW,208,0.0,0.0,98,0.00,,,0.00,Wunderground v.1.15,2013-09-01 00:59:00,
2013-08-31 21:03:00,72.7,72.1,29.75,SSW,208,0.0,0.0,98,0.00,,,0.00,Wunderground v.1.15,2013-09-01 01:03:00,
2013-08-31 21:09:00,72.7,72.1,29.75,SSW,208,0.0,0.0,98,0.00,,,0.00,Wunderground v.1.15,2013-09-01 01:09:00,
2013-08-31 21:14:00,72.7,72.1,29.77,SSW,208,0.0,0.0,98,0.00,,,0.00,Wunderground v.1.15,2013-09-01 01:14:00,
2013-08-31 21:19:00,72.7,72.1,29.77,SSW,208,0.0,0.0,98,0.00,,,0.00,Wunderground v.1.15,2013-09-01 01:19:00,
2013-08-31 21:24:00,72.5,71.9,29.77,SSW,208,0.0,0.0,98,0.00,,,0.00,Wunderground v.1.15,2013-09-01 01:24:00,
2013-08-31 21:29:00,72.5,71.9,29.77,SSW,208,0.0,0.0,98,0.00,,,0.00,Wunderground v.1.15,2013-09-01 01:29:00,
2013-08-31 21:34:00,72.5,71.9,29.77,SSW,208,0.0,0.0,98,0.00,,,0.00,Wunderground v.1.15,2013-09-01 01:34:00,
2013-08-31 21:39:00,72.5,71.9,29.77,SSW,208,0.0,0.0,98,0.00,,,0.00,Wunderground v.1.15,2013-09-01 01:39:00,
2013-08-31 21:44:00,72.3,72.0,29.77,SSW,208,0.0,0.0,99,0.00,,,0.00,Wunderground v.1.15,2013-09-01 01:44:00,
2013-08-31 21:49:00,72.3,72.0,29.77,SSW,208,0.0,0.0,99,0.00,,,0.00,Wunderground v.1.15,2013-09-01 01:49:00,
2013-08-31 21:54:00,72.3,72.0,29.76,SSW,208,0.0,0.0,99,0.00,,,0.00,Wunderground v.1.15,2013-09-01 01:54:00,
2013-08-31 22:00:00,72.1,71.8,29.76,SSW,208,0.0,0.0,99,0.00,,,0.00,Wunderground v.1.15,2013-09-01 02:00:00,
2013-08-31 22:07:00,72.0,71.7,29.76,SSW,208,0.0,0.0,99,0.00,,,0.00,Wunderground v.1.15,2013-09-01 02:07:00,
2013-08-31 22:12:00,71.8,71.5,29.75,SSW,208,0.0,0.0,99,0.00,,,0.00,Wunderground v.1.15,2013-09-01 02:12:00,
2013-08-31 22:17:00,71.8,71.5,29.75,SSW,208,0.0,0.0,99,0.00,,,0.00,Wunderground v.1.15,2013-09-01 02:17:00,
2013-08-31 22:22:00,71.6,71.3,29.75,SSW,208,0.0,0.0,99,0.00,,,0.00,Wunderground v.1.15,2013-09-01 02:22:00,
2013-08-31 22:27:00,71.5,71.2,29.75,SSW,208,0.0,0.0,99,0.00,,,0.00,Wunderground v.1.15,2013-09-01 02:27:00,
2013-08-31 22:32:00,71.5,71.2,29.75,SSW,208,0.0,0.0,99,0.00,,,0.00,Wunderground v.1.15,2013-09-01 02:32:00,
2013-08-31 22:37:00,71.1,70.8,29.75,SSW,208,0.0,0.0,99,0.00,,,0.00,Wunderground v.1.15,2013-09-01 02:37:00,
2013-08-31 22:42:00,71.1,70.8,29.75,SSW,208,0.0,0.0,99,0.00,,,0.00,Wunderground v.1.15,2013-09-01 02:42:00,
2013-08-31 22:47:00,71.1,71.1,29.75,SSW,208,0.0,0.0,100,0.00,,,0.00,Wunderground v.1.15,2013-09-01 02:47:00,
2013-08-31 22:53:00,71.3,71.3,29.75,SSW,208,0.0,1.0,100,0.00,,,0.00,Wunderground v.1.15,2013-09-01 02:53:00,
2013-08-31 22:58:00,71.3,71.3,29.76,SSW,208,0.0,0.0,100,0.00,,,0.00,Wunderground v.1.15,2013-09-01 02:58:00,
2013-08-31 23:03:00,71.1,71.1,29.76,SSW,208,0.0,0.0,100,0.00,,,0.00,Wunderground v.1.15,2013-09-01 03:03:00,
2013-08-31 23:08:00,71.1,71.1,29.76,SSW,208,0.0,0.0,100,0.00,,,0.00,Wunderground v.1.15,2013-09-01 03:08:00,
2013-08-31 23:13:00,71.1,71.1,29.76,SSW,208,0.0,0.0,100,0.00,,,0.00,Wunderground v.1.15,2013-09-01 03:13:00,
2013-08-31 23:18:00,70.9,70.9,29.76,SSW,208,0.0,0.0,100,0.00,,,0.00,Wunderground v.1.15,2013-09-01 03:18:00,
2013-08-31 23:23:00,70.9,70.9,29.76,SSW,208,0.0,0.0,100,0.00,,,0.00,Wunderground v.1.15,2013-09-01 03:23:00,
2013-08-31 23:28:00,70.9,70.9,29.75,WSW,237,0.0,0.0,100,0.00,,,0.00,Wunderground v.1.15,2013-09-01 03:28:00,
2013-08-31 23:33:00,70.8,70.8,29.75,WSW,237,0.0,0.0,100,0.00,,,0.00,Wunderground v.1.15,2013-09-01 03:33:00,
2013-08-31 23:38:00,70.6,70.6,29.75,WSW,237,0.0,0.0,100,0.00,,,0.00,Wunderground v.1.15,2013-09-01 03:38:00,
2013-08-31 23:43:00,70.6,70.6,29.76,WSW,237,0.0,0.0,100,0.00,,,0.00,Wunderground v.1.15,2013-09-01 03:43:00,
2013-08-31 23:48:00,70.6,70.6,29.76,WSW,237,0.0,0.0,100,0.00,,,0.00,Wunderground v.1.15,2013-09-01 03:48:00,
2013-08-31 23:53:00,70.8,70.8,29.76,WSW,237,0.0,0.0,100,0.00,,,0.00,Wunderground v.1.15,2013-09-01 03:53:00,